This demonstration page uses our WeatherBlox Daily Observations layout. Learn more.

Left ArrowRight Arrow

Hourly Observations for May 16, 2017

Temp ( °F °C ) Dew Point ( °F °C ) Humidity (%) Winds ( mph kmh ) Pressure ( in mb ) Visibility ( mi km ) Precip ( " mm )
12:52 am 00:52 Clear 67 19.4 60 15.6 79 79 SSE 8 13 29.85 1011 10 16 0.00 0.00
1:52 am 01:52 Clear 67 19.4 60 15.6 79 79 S 9 15 29.85 1011 10 16 0.00 0.00
2:52 am 02:52 Clear 66 18.9 60 15.6 81 81 SSE 9 15 29.85 1011 10 16 0.00 0.00
3:52 am 03:52 Clear 65 18.3 60 15.6 84 84 SSE 10 17 29.85 1011 10 16 0.00 0.00
4:52 am 04:52 Clear 64 17.8 60 15.6 87 87 SSE 10 17 29.85 1011 10 16 0.00 0.00
5:52 am 05:52 Clear 63 17.2 59 15 87 87 SSE 12 19 29.84 1011 10 16 0.00 0.00
6:52 am 06:52 Sunny 63 17.2 59 15 87 87 SSE 12 19 29.85 1011 10 16 0.00 0.00
7:52 am 07:52 Sunny 68 20 60 15.6 76 76 S 13 20 29.85 1011 10 16 0.00 0.00
8:52 am 08:52 Sunny 71 21.7 61 16.1 71 71 S 17 28 29.86 1011 10 16 0.00 0.00
9:52 am 09:52 Sunny 74 23.3 61 16.1 64 64 S 21 33 29.85 1011 10 16 0.00 0.00
10:52 am 10:52 Sunny 76 24.4 62 16.7 62 62 S 16 26 29.84 1011 10 16 0.00 0.00
11:52 am 11:52 Sunny 78 25.6 59 15 52 52 S 22 35 29.83 1010 10 16 0.00 0.00
12:52 pm 12:52 Sunny 80 26.7 56 13.3 44 44 S 23 37 29.82 1010 10 16 0.00 0.00
1:52 pm 13:52 Sunny 81 27.2 52 11.1 37 37 S 21 33 29.81 1009 10 16 0.00 0.00
2:52 pm 14:52 Sunny 82 27.8 54 12.2 38 38 SSW 18 30 29.78 1009 10 16 0.00 0.00
3:52 pm 15:52 Sunny 83 28.3 53 11.7 36 36 S 22 35 29.77 1008 10 16 0.00 0.00
4:52 pm 16:52 Sunny 82 27.8 53 11.7 37 37 S 17 28 29.74 1007 10 16 0.00 0.00
5:52 pm 17:52 Sunny 82 27.8 54 12.2 38 38 S 22 35 29.72 1006 10 16 0.00 0.00
6:52 pm 18:52 Sunny 80 26.7 54 12.2 41 41 S 18 30 29.70 1006 10 16 0.00 0.00
7:52 pm 19:52 Sunny 77 25 56 13.3 48 48 SSE 17 28 29.70 1006 10 16 0.00 0.00
8:52 pm 20:52 Clear 75 23.9 57 13.9 54 54 SSE 18 30 29.69 1005 10 16 0.00 0.00
9:52 pm 21:52 Clear 74 23.3 59 15 60 60 SSE 20 31 29.69 1006 10 16 0.00 0.00
10:52 pm 22:52 Clear 73 22.8 60 15.6 64 64 S 20 31 29.67 1005 10 16 0.00 0.00
11:52 pm 23:52 Clear 72 22.2 60 15.6 66 66 SSE 16 26 29.66 1004 10 16 0.00 0.00

Powered by AerisWeather